Hourly Weather Allende

Today, 7 March, Sunday

Time Temperature Precipitation Wind Pressure Humidity
00:00 +14°C° 0 mm 2 mps 727 mmHg 83%
01:00 +14°C° 0 mm 2 mps 727 mmHg 86%
02:00 +14°C° 0 mm 2 mps 727 mmHg 89%
03:00 +14°C° 0 mm 1 mps 726 mmHg 90%
04:00 +14°C° 0 mm 1 mps 726 mmHg 90%
05:00 +13°C° 0 mm 1 mps 726 mmHg 91%
06:00 +14°C° 0 mm 1 mps 727 mmHg 88%
07:00 +14°C° 0 mm 1 mps 727 mmHg 86%
08:00 +15°C° 0 mm 1 mps 728 mmHg 84%
09:00 +16°C° 0 mm 1 mps 728 mmHg 82%
10:00 +16°C° 0 mm 2 mps 727 mmHg 80%
11:00 +17°C° 0 mm 2 mps 727 mmHg 78%
12:00 +17°C° 0 mm 2 mps 727 mmHg 78%
13:00 +17°C° 0 mm 2 mps 726 mmHg 77%
14:00 +18°C° 0 mm 1 mps 726 mmHg 77%
15:00 +18°C° 0 mm 1 mps 726 mmHg 79%
16:00 +18°C° 0 mm 1 mps 726 mmHg 80%
17:00 +16°C° 0 mm 1 mps 726 mmHg 82%
18:00 +16°C° 0.1 mm 1 mps 727 mmHg 85%
19:00 +16°C° 0.1 mm 1 mps 728 mmHg 88%
20:00 +15°C° 0.1 mm 1 mps 728 mmHg 90%
21:00 +15°C° 0 mm 1 mps 729 mmHg 91%
22:00 +14°C° 0 mm 0 mps 729 mmHg 91%
23:00 +14°C° 0 mm 0 mps 729 mmHg 91%

Tomorrow, 8 March, Monday

Time Temperature Precipitation Wind Pressure Humidity
00:00 +14°C° 0 mm 0 mps 729 mmHg 92%
01:00 +14°C° 0 mm 0 mps 728 mmHg 92%
02:00 +14°C° 0 mm 0 mps 728 mmHg 92%
03:00 +14°C° 0 mm 0 mps 728 mmHg 92%
04:00 +14°C° 0 mm 0 mps 728 mmHg 92%
05:00 +14°C° 0 mm 0 mps 728 mmHg 92%
06:00 +15°C° 0.1 mm 1 mps 729 mmHg 90%
07:00 +16°C° 0.1 mm 1 mps 729 mmHg 88%
08:00 +18°C° 0.1 mm 1 mps 730 mmHg 85%
09:00 +19°C° 0 mm 1 mps 730 mmHg 82%
10:00 +19°C° 0 mm 2 mps 729 mmHg 78%
11:00 +20°C° 0 mm 2 mps 729 mmHg 75%
12:00 +20°C° 0 mm 3 mps 728 mmHg 73%
13:00 +21°C° 0 mm 3 mps 728 mmHg 71%
14:00 +21°C° 0 mm 3 mps 727 mmHg 69%
15:00 +21°C° 0 mm 3 mps 727 mmHg 71%
16:00 +21°C° 0 mm 3 mps 727 mmHg 72%
17:00 +21°C° 0 mm 3 mps 727 mmHg 74%
18:00 +20°C° 0 mm 3 mps 727 mmHg 77%
19:00 +19°C° 0 mm 3 mps 728 mmHg 80%
20:00 +19°C° 0 mm 2 mps 728 mmHg 84%
21:00 +18°C° 0 mm 2 mps 728 mmHg 84%
22:00 +18°C° 0 mm 2 mps 728 mmHg 85%
23:00 +18°C° 0 mm 2 mps 728 mmHg 85%

Day after tomorrow, 9 March, Tuesday

Time Temperature Precipitation Wind Pressure Humidity
00:00 +17°C° 0 mm 2 mps 728 mmHg 86%
01:00 +17°C° 0 mm 2 mps 727 mmHg 87%
02:00 +18°C° 0 mm 1 mps 727 mmHg 89%
03:00 +18°C° 0 mm 1 mps 727 mmHg 88%
04:00 +18°C° 0 mm 1 mps 727 mmHg 88%
05:00 +18°C° 0 mm 1 mps 727 mmHg 87%
06:00 +18°C° 0 mm 2 mps 727 mmHg 82%
07:00 +20°C° 0 mm 2 mps 728 mmHg 76%
08:00 +21°C° 0 mm 2 mps 728 mmHg 71%
09:00 +22°C° 0 mm 3 mps 728 mmHg 65%
10:00 +25°C° 0 mm 3 mps 727 mmHg 59%
11:00 +27°C° 0 mm 4 mps 727 mmHg 53%
12:00 +28°C° 0 mm 4 mps 726 mmHg 50%
13:00 +29°C° 0 mm 4 mps 725 mmHg 46%
14:00 +30°C° 0 mm 5 mps 724 mmHg 43%
15:00 +29°C° 0 mm 5 mps 724 mmHg 44%
16:00 +28°C° 0 mm 5 mps 724 mmHg 46%
17:00 +28°C° 0 mm 5 mps 724 mmHg 48%
18:00 +26°C° 0 mm 4 mps 724 mmHg 55%
19:00 +23°C° 0 mm 4 mps 724 mmHg 61%
20:00 +21°C° 0 mm 3 mps 725 mmHg 67%
21:00 +21°C° 0 mm 3 mps 725 mmHg 69%
22:00 +20°C° 0 mm 2 mps 724 mmHg 70%
23:00 +19°C° 0 mm 2 mps 724 mmHg 71%

10 March, Wednesday

Time Temperature Precipitation Wind Pressure Humidity
00:00 +19°C° 0 mm 2 mps 724 mmHg 72%
01:00 +19°C° 0 mm 2 mps 724 mmHg 72%
02:00 +18°C° 0 mm 2 mps 723 mmHg 73%
03:00 +18°C° 0 mm 2 mps 723 mmHg 75%
04:00 +18°C° 0 mm 2 mps 723 mmHg 77%
05:00 +17°C° 0 mm 2 mps 723 mmHg 79%
06:00 +19°C° 0 mm 2 mps 723 mmHg 71%
07:00 +21°C° 0 mm 2 mps 724 mmHg 64%
08:00 +24°C° 0 mm 2 mps 724 mmHg 57%
09:00 +26°C° 0 mm 2 mps 724 mmHg 52%
10:00 +28°C° 0 mm 3 mps 724 mmHg 48%
11:00 +30°C° 0 mm 3 mps 723 mmHg 43%
12:00 +32°C° 0 mm 4 mps 722 mmHg 40%
13:00 +33°C° 0 mm 4 mps 722 mmHg 38%
14:00 +34°C° 0 mm 5 mps 721 mmHg 35%
15:00 +33°C° 0 mm 5 mps 720 mmHg 38%
16:00 +32°C° 0 mm 5 mps 720 mmHg 41%
17:00 +29°C° 0 mm 5 mps 720 mmHg 43%
18:00 +28°C° 0 mm 4 mps 721 mmHg 49%
19:00 +26°C° 0 mm 4 mps 721 mmHg 54%
20:00 +24°C° 0 mm 3 mps 722 mmHg 60%
21:00 +24°C° 0 mm 3 mps 722 mmHg 63%
22:00 +23°C° 0 mm 2 mps 722 mmHg 65%
23:00 +21°C° 0 mm 2 mps 722 mmHg 68%

11 March, Thursday

Time Temperature Precipitation Wind Pressure Humidity
00:00 +21°C° 0 mm 3 mps 721 mmHg 69%
01:00 +21°C° 0 mm 3 mps 721 mmHg 70%
02:00 +20°C° 0 mm 3 mps 721 mmHg 70%
03:00 +20°C° 0 mm 3 mps 721 mmHg 71%
04:00 +20°C° 0 mm 3 mps 721 mmHg 71%
05:00 +19°C° 0 mm 2 mps 721 mmHg 72%
06:00 +21°C° 0 mm 2 mps 721 mmHg 67%
07:00 +24°C° 0 mm 2 mps 722 mmHg 61%
08:00 +25°C° 0 mm 2 mps 722 mmHg 56%
09:00 +27°C° 0 mm 2 mps 722 mmHg 50%
10:00 +29°C° 0 mm 3 mps 722 mmHg 45%
11:00 +31°C° 0 mm 3 mps 722 mmHg 40%
12:00 +33°C° 0 mm 3 mps 721 mmHg 37%
13:00 +34°C° 0 mm 4 mps 720 mmHg 34%
14:00 +35°C° 0 mm 5 mps 720 mmHg 32%
15:00 +34°C° 0 mm 4 mps 719 mmHg 35%
16:00 +33°C° 0 mm 4 mps 719 mmHg 39%
17:00 +32°C° 0 mm 4 mps 719 mmHg 43%
18:00 +29°C° 0 mm 4 mps 720 mmHg 48%
19:00 +27°C° 0 mm 3 mps 720 mmHg 53%
20:00 +25°C° 0 mm 3 mps 721 mmHg 58%
21:00 +25°C° 0 mm 3 mps 721 mmHg 58%
22:00 +23°C° 0 mm 4 mps 721 mmHg 59%
23:00 +23°C° 0 mm 4 mps 721 mmHg 59%

12 March, Friday

Time Temperature Precipitation Wind Pressure Humidity
00:00 +22°C° 0 mm 4 mps 721 mmHg 61%
01:00 +22°C° 0 mm 3 mps 720 mmHg 63%
02:00 +21°C° 0 mm 3 mps 720 mmHg 66%
03:00 +21°C° 0 mm 3 mps 720 mmHg 68%
04:00 +20°C° 0 mm 2 mps 720 mmHg 70%
05:00 +20°C° 0 mm 2 mps 720 mmHg 73%
06:00 +23°C° 0 mm 2 mps 721 mmHg 67%
07:00 +24°C° 0 mm 2 mps 721 mmHg 62%
08:00 +26°C° 0 mm 2 mps 722 mmHg 56%
09:00 +28°C° 0 mm 3 mps 721 mmHg 51%
10:00 +30°C° 0 mm 3 mps 721 mmHg 46%
11:00 +33°C° 0 mm 4 mps 721 mmHg 40%
12:00 +34°C° 0 mm 4 mps 720 mmHg 38%
13:00 +34°C° 0 mm 5 mps 719 mmHg 36%
14:00 +35°C° 0 mm 5 mps 719 mmHg 34%
15:00 +34°C° 0 mm 5 mps 718 mmHg 37%
16:00 +33°C° 0 mm 5 mps 718 mmHg 40%
17:00 +32°C° 0 mm 5 mps 718 mmHg 43%
18:00 +29°C° 0 mm 4 mps 718 mmHg 49%
19:00 +28°C° 0 mm 4 mps 718 mmHg 55%
20:00 +26°C° 0 mm 3 mps 719 mmHg 61%
21:00 +25°C° 0 mm 3 mps 719 mmHg 60%
22:00 +25°C° 0 mm 3 mps 719 mmHg 60%
23:00 +25°C° 0 mm 3 mps 720 mmHg 59%
Show more